Regional Weather Roundup
Issued by NWS

Home | Current Version | Previous Version | Text Only | Print | Product List | Glossary On
Versions: 1 2 3 4 5 6 7 8 9 10 11 12 13 14 15 16 17 18 19 20 21 22 23 24 25 26 27 28 29 30 31 32 33 34 35 36 37 38 39 40 41 42 43 44 45 46 47 48 49 50
000
ASUS43 KOAX 210010
RWRNE

WEATHER ROUNDUP FOR NEBRASKA
NATIONAL WEATHER SERVICE OMAHA NE
600 PM CST FRI JAN 20 2017

NOTES: SATELLITE DATA IS BEING USED TO AUGMENT CLOUD COVER ABOVE
       12000 FEET.
       "FAIR" INDICATES FEW OR NO CLOUDS BELOW 12,000 FEET WITH NO
       SIGNIFICANT WEATHER AND/OR OBSTRUCTIONS TO VISIBILITY.

  * THESE STATIONS DO NOT REPORT WEATHER SUCH AS RAIN...SNOW OR FOG.

NEZ001>004-019>022-054>056-210100-
NEBRASKA PANHANDLE

CITY           SKY/WX    TMP DP  RH WIND       PRES   REMARKS
SCOTTSBLUFF    LGT RAIN  37  33  85 W10       29.40R WCI  30
6HR MIN TEMP:  37; 6HR MAX TEMP:  42; 6HR PCP: TRACE;

ALLIANCE       CLOUDY    37  31  78 NW13      29.37R WCI  29
6HR MIN TEMP:  37; 6HR MAX TEMP:  42;

CHADRON        CLOUDY    36  32  85 W14       29.37R WCI  27
6HR MIN TEMP:  34; 6HR MAX TEMP:  37;

KIMBALL        CLOUDY    35  31  87 N14G21    29.39S WCI  25
SIDNEY         CLOUDY    36  31  82 NW14      29.39R WCI  27
6HR MIN TEMP:  36; 6HR MAX TEMP:  42;

$$

NEZ057>060-069>072-079>082-210100-
SOUTHWEST NEBRASKA

CITY           SKY/WX    TMP DP  RH WIND       PRES   REMARKS
NORTH PLATTE   CLOUDY    36  31  82 W6        29.36S WCI  31
6HR MIN TEMP:  36; 6HR MAX TEMP:  44;

IMPERIAL       CLOUDY    39  34  82 NW7       29.37R WCI  34
6HR MIN TEMP:  30; 6HR MAX TEMP:  43;

LEXINGTON      CLOUDY    39  36  89 CALM      29.37R
MCCOOK         CLOUDY    38  33  82 W7        29.37S WCI  33
6HR MIN TEMP:  36; 6HR MAX TEMP:  39;

OGALLALA       CLOUDY    39  33  77 CALM      29.37S
$$

NEZ005>010-023>029-035>040-094-210100-
NORTH CENTRAL NEBRASKA

CITY           SKY/WX    TMP DP  RH WIND       PRES   REMARKS
VALENTINE      PTCLDY    33  26  75 SW5       29.34R WCI  29
6HR MIN TEMP:  33; 6HR MAX TEMP:  45;

AINSWORTH      CLOUDY    37  31  80 SW5       29.34S WCI  33
BROKEN BOW     CLOUDY    38  36  92 CALM      29.35S
6HR MIN TEMP:  38; 6HR MAX TEMP:  43;

O`NEILL        CLOUDY    41  39  93 S9        29.37S
ORD            CLOUDY    39  38  96 SE3       29.36S FOG
6HR MIN TEMP:  38; 6HR MAX TEMP:  41; 6HR PCP: TRACE;

THEDFORD       CLOUDY    37  33  86 SW7       29.36R WCI  31
$$

NEZ041-046>049-061>064-073>077-083>087-210100-
SOUTH CENTRAL NEBRASKA

CITY           SKY/WX    TMP DP  RH WIND       PRES   REMARKS
GRAND ISLAND   FOG       39  39 100 SE5       29.38F VSB 1/4
6HR MIN TEMP:  39; 6HR MAX TEMP:  42; 6HR PCP:  0.01;

AURORA         FOG       39  39 100 E3        29.39S VSB 1/4
HASTINGS       CLOUDY    41  40  96 S5        29.39S FOG
6HR MIN TEMP:  40; 6HR MAX TEMP:  41; 6HR PCP:  0.01;

HEBRON         FOG       43  43 100 CALM      29.41R VSB 1/2
HOLDREGE       CLOUDY    37  37  97 CALM      29.38R FOG
KEARNEY *      CLOUDY    39 -11  11 CALM      29.37S VSB 1/4
YORK           FOG       41  41 100 CALM      29.39F VSB 1/2
$$

NEZ011>018-030>034-042>045-210100-
NORTHEAST NEBRASKA

CITY           SKY/WX    TMP DP  RH WIND       PRES   REMARKS
NORFOLK        CLOUDY    39  38  96 SE6       29.41S FOG     WCI  35
6HR MIN TEMP:  39; 6HR MAX TEMP:  41; 6HR PCP: TRACE;

ALBION         CLOUDY   N/A N/A N/A E7        29.39F FOG
BLAIR          DRIZZLE   41  40  97 E7        29.44S
FREMONT        CLOUDY    41  41 100 E8        29.44S FOG
TEKAMAH        LGT RAIN  39  38  96 SE6       29.46S FOG     WCI  35
6HR MIN TEMP:  39; 6HR MAX TEMP:  43; 6HR PCP:  0.01;

WAYNE          FOG       40  39  99 SE7       29.43S VSB 1/2 WCI  35
$$

NEZ050>053-065>068-078-088>093-210100-
SOUTHEAST NEBRASKA

CITY           SKY/WX    TMP DP  RH WIND       PRES   REMARKS
LINCOLN        CLOUDY    43  42  97 E8        29.43F FOG
6HR MIN TEMP:  42; 6HR MAX TEMP:  46; 6HR PCP: TRACE;

OMAHA EPPLEY   CLOUDY    42  38  85 E6        29.46S FOG
6HR MIN TEMP:  42; 6HR MAX TEMP:  44; 6HR PCP:  0.01;

BEATRICE       FOG       44  44 100 E5        29.41S VSB 1/4
FALLS CITY     CLOUDY    45  44  97 SE7       29.44R
6HR MIN TEMP:  44; 6HR MAX TEMP:  46; 6HR PCP:  0.01;

NEBRASKA CITY  FOG       42  42 100 E5        29.45R VSB 1/2
PLATTSMOUTH    LGT RAIN  42  40  93 E7        29.45S VSB 3/4
$$

NEZ044-045-051>053-067-210100-
OMAHA AREA

CITY           SKY/WX    TMP DP  RH WIND       PRES   REMARKS
OMAHA EPPLEY   CLOUDY    42  38  85 E6        29.46S FOG
6HR MIN TEMP:  42; 6HR MAX TEMP:  44; 6HR PCP:  0.01;

BLAIR          DRIZZLE   41  40  97 E7        29.44S
FREMONT        CLOUDY    41  41 100 E8        29.44S FOG
MILLARD        CLOUDY    44  43  95 E3        29.45S
OFFUTT AFB     LGT RAIN  42  42 100 E6        29.45S
PLATTSMOUTH    LGT RAIN  42  40  93 E7        29.45S VSB 3/4
WAHOO          FOG       40  39  97 E6        29.43S VSB 1/2
$$




USA.gov is the U.S. government's official web portal to all federal, state and local government web resources and services.